[[{"header":{"parameterUnit":"m.s-1","parameterCategory":1,"la1":30.2991,"la2":30.254,"lo1":-89.0895,"lo2":-89.0444,"dy":0.0017,"dx":0.0017,"nx":28,"ny":28,"refTime":"2024-07-26T21:00:00:Z","depth":0,"parameterNumber":2,"parameterNumberName":"U-component_of_WINDS"},"data":[0,0,0,0,0,0,0,0,0,0,0,0,0,0,0,0,0,0,0,0,0,0,0,0,0,0,0,0,0,0,0,0,0,0,0,0,0,0,0,0,0,0,0,0,0,0,0,0,0,0,0,0,0,0,0,0,0,0,3.1825,3.1825,0,3.1873,3.1874,3.1874,3.1777,3.1774,3.177,3.1767,3.1815,3.1819,3.1823,0,0,0,0,0,0,0,0,0,0,0,0,0,3.1645,3.1649,3.1825,3.1825,3.1826,3.1873,3.1874,3.1874,3.1777,3.1773,3.177,3.1766,3.1814,3.1819,3.1824,0,0,0,0,0,0,0,0,0,0,0,0,0,3.1711,3.165,3.1825,3.1783,3.178,3.1873,3.1874,3.1875,3.1778,3.1773,3.1769,3.1764,3.1812,3.1818,3.1824,3.1959,0,0,3.1844,3.1847,0,0,0,0,0,0,0,0,3.1708,3.1718,3.1789,3.1786,3.1783,3.1814,3.1828,3.1903,3.1779,3.1779,3.1767,3.1762,3.1818,3.1824,3.1843,3.1962,3.1964,3.1844,3.1848,3.1851,3.1853,0,0,0,0,0,0,0,3.1703,3.1715,3.1844,3.179,3.1786,3.1761,3.1765,3.1842,3.1825,3.1778,3.1771,3.1779,3.1816,3.1838,3.1844,3.1964,3.1844,3.185,3.1854,3.1856,3.2192,3.2197,0,0,0,0,0,0,3.1704,3.1712,3.1842,3.1845,3.1733,3.1768,3.1773,3.1809,3.1824,3.1821,3.1783,3.1774,3.1829,3.1837,3.1845,3.2001,3.1851,3.1857,3.1861,3.2187,3.2193,3.2199,0,0,0,0,0,0,3.1701,3.1717,3.184,3.1777,3.1791,3.1777,3.1818,3.1812,3.1834,3.1827,3.1823,3.1808,3.1826,3.1836,3.1931,3.2001,3.186,3.1866,3.2181,3.2189,3.2196,3.2316,0,0,0,0,0,0,3.1696,3.1716,3.1768,3.1779,3.1795,3.1927,3.1822,3.1817,3.1845,3.1834,3.185,3.1848,3.1823,3.1922,3.1937,3.2008,3.1871,3.2175,3.2185,3.2194,3.2305,3.2327,3.2345,0,0,0,0,0,3.169,3.18,3.1771,3.1787,3.1859,3.1931,3.194,3.1909,3.1852,3.1902,3.1898,3.1847,3.1992,3.1933,3.1949,3.2022,3.217,3.2182,3.2193,3.2297,3.2323,3.2344,0,0,0,0,0,0,3.1797,3.1801,3.1769,3.1886,3.1909,3.1914,3.1978,3.1938,3.1977,3.1965,3.1925,3.193,3.2032,3.2037,3.1971,3.2152,3.2071,3.2086,3.2144,3.2169,3.2188,3.2183,3.1876,0,0,0,0,0,3.1835,3.1894,3.1893,3.1997,3.201,3.1992,3.2023,3.1997,3.2019,3.2028,3.203,3.2053,3.2103,3.2137,3.2183,3.2307,3.2307,3.2365,3.2385,3.2401,3.2414,3.2476,3.2501,3.2236,3.2236,3.2236,0,0,3.1912,3.1921,3.1961,3.2018,3.2033,3.2093,3.2001,3.2069,3.2113,3.2038,3.2126,3.213,3.2152,3.2261,3.231,3.2269,3.2487,3.2416,3.2429,3.2432,3.2491,3.2516,3.2538,3.2244,3.2243,3.2242,0,0,3.2083,3.2098,3.2184,3.2201,3.2224,3.2212,3.2233,3.2245,3.2243,3.2332,3.2276,3.2328,3.2416,3.2433,3.2454,3.2632,3.2585,3.2648,3.2749,3.2811,3.2832,3.285,3.2909,3.2932,3.2661,3.2662,3.2662,0,3.2176,3.2265,3.2233,3.2304,3.233,3.2266,3.2352,3.237,3.2407,3.2426,3.238,3.2488,3.2499,3.2609,3.2653,3.2673,3.2693,3.2644,3.2832,3.2849,3.2866,3.2922,3.2945,3.2669,3.2668,3.2667,3.2667,0,3.2376,3.244,3.2506,3.2544,3.2577,3.2656,3.2634,3.2672,3.2644,3.2636,3.2726,3.2737,3.2783,3.2808,3.2782,3.2915,3.2888,3.2838,3.2755,3.2899,3.2951,3.2973,3.2679,3.2676,3.2674,3.2673,0,0,3.2614,3.2633,3.2658,3.2673,3.2695,3.2742,3.2817,3.2862,3.2894,3.2923,3.2982,3.3058,3.3011,3.3035,3.301,3.3065,3.32,3.3007,3.3007,3.3039,3.3344,3.3378,3.3404,3.3171,3.3175,3.3179,3.334,0,3.2781,3.291,3.2882,3.3008,3.3064,3.3005,3.3069,3.3089,3.3084,3.313,3.3124,3.3177,3.3113,3.3126,3.3178,3.3173,3.326,3.3162,3.3224,3.3226,3.3216,3.3432,3.3469,3.3621,3.3361,3.3364,3.3367,0,3.2991,3.3027,3.3159,3.317,3.3192,3.3251,3.3289,3.3335,3.3355,3.3347,3.3374,3.3338,3.341,3.333,3.3428,3.3361,3.3385,3.3387,3.3392,3.3393,3.3303,3.3435,3.3669,3.369,3.34,3.3397,3.3395,0,3.3147,3.3229,3.3317,3.3332,3.3348,3.339,3.3399,3.3415,3.3443,3.3477,3.3494,3.3536,3.3558,3.3591,3.3567,3.3511,3.3668,3.3586,3.3661,3.3661,3.3693,3.3691,3.393,3.3716,3.3716,3.3715,3.3715,0,3.3333,3.3415,3.3386,3.344,3.353,3.3498,3.3587,3.3588,3.3603,3.3655,3.3607,3.3657,3.3624,3.3671,3.3653,3.3734,3.3746,3.374,3.3733,3.3742,3.3742,3.3754,3.3741,3.3721,3.372,3.3719,3.3718,0,3.3519,3.3504,3.3596,3.3604,3.3608,3.3673,3.3679,3.3728,3.372,3.3786,3.38,3.3787,3.3839,3.3819,3.3875,3.3863,3.3966,3.3948,3.3959,3.3953,3.4027,3.4019,3.428,3.4311,3.4081,3.4083,3.4085,0,3.3637,3.3698,3.3713,3.3744,3.3756,3.3808,3.3837,3.3808,3.384,3.3867,3.3913,3.3961,3.3998,3.4084,3.4078,3.412,3.41,3.4189,3.4106,3.4112,3.4097,3.4092,3.4096,3.4204,3.4207,3.4209,3.4211,0,3.3846,3.3836,3.3879,3.392,3.3955,3.3986,3.4012,3.4041,3.4013,3.4051,3.4104,3.4133,3.419,3.4237,3.4274,3.4281,3.4241,3.4238,3.4256,3.4263,3.4265,3.4261,3.4,3.4231,3.4229,3.4227,3.4226,3.4225,3.3999,3.4049,3.4067,3.4116,3.4134,3.4159,3.4205,3.4203,3.4247,3.429,3.4272,3.4332,3.435,3.4396,3.4409,3.4454,3.442,3.4448,3.4454,3.4461,3.4468,3.4262,3.4462,3.4461,3.4461,3.446,3.446,0,3.4202,3.421,3.4256,3.4294,3.4333,3.4294,3.4321,3.4355,3.4409,3.4429,3.4466,3.4526,3.4572,3.4571,3.4613,3.4649,3.4632,3.4661,3.4656,3.4657,3.4499,3.4477,3.4675,3.4674,3.4674,3.4674,3.4674,3.4674,3.4311,3.4394,3.4386,3.4476,3.4483,3.4542,3.4561,3.4583,3.4599,3.4668,3.4706,3.4706,3.4717,3.4759,3.4798,3.4797,3.4813,3.4848,3.4839,3.4691,3.4669,3.4649,3.4627,3.4853,3.4853,3.4993,3.4994,3.4995]},{"header":{"parameterUnit":"m.s-1","parameterCategory":1,"la1":30.2991,"la2":30.254,"lo1":-89.0895,"lo2":-89.0444,"dy":0.0017,"dx":0.0017,"nx":28,"ny":28,"refTime":"2024-07-26T21:00:00:Z","depth":0,"parameterNumber":3,"parameterNumberName":"V-component_of_WINDS"},"data":[0,0,0,0,0,0,0,0,0,0,0,0,0,0,0,0,0,0,0,0,0,0,0,0,0,0,0,0,0,0,0,0,0,0,0,0,0,0,0,0,0,0,0,0,0,0,0,0,0,0,0,0,0,0,0,0,0,0,2.8122,2.8122,0,2.8172,2.8172,2.8173,2.812,2.8118,2.8116,2.8114,2.8165,2.8168,2.8171,0,0,0,0,0,0,0,0,0,0,0,0,0,2.7979,2.7982,2.8122,2.8122,2.8123,2.8172,2.8172,2.8173,2.8121,2.8118,2.8116,2.8113,2.8164,2.8168,2.8172,0,0,0,0,0,0,0,0,0,0,0,0,0,2.8036,2.7983,2.8121,2.8103,2.8101,2.8171,2.8172,2.8173,2.8121,2.8118,2.8115,2.8112,2.8163,2.8167,2.8172,2.8263,0,0,2.8187,2.8189,0,0,0,0,0,0,0,0,2.8033,2.8042,2.8105,2.8104,2.8103,2.8137,2.8141,2.8203,2.8122,2.8114,2.8114,2.8111,2.8158,2.8163,2.8179,2.8265,2.8268,2.8188,2.819,2.8193,2.8194,0,0,0,0,0,0,0,2.8029,2.8039,2.8141,2.8106,2.8105,2.8091,2.8096,2.8152,2.8152,2.8114,2.811,2.8117,2.8157,2.8175,2.818,2.8268,2.8187,2.8192,2.8195,2.8197,2.8429,2.8432,0,0,0,0,0,0,2.8028,2.8036,2.814,2.8143,2.806,2.8096,2.8102,2.8129,2.8152,2.8152,2.812,2.8115,2.8168,2.8174,2.8182,2.8287,2.8192,2.8197,2.82,2.8426,2.843,2.8433,0,0,0,0,0,0,2.8025,2.8037,2.8138,2.8089,2.81,2.8102,2.8133,2.8131,2.8149,2.8156,2.8155,2.8138,2.8166,2.8175,2.8243,2.8289,2.8199,2.8204,2.8422,2.8427,2.8432,2.8501,0,0,0,0,0,0,2.8021,2.8037,2.8072,2.809,2.8103,2.8199,2.8136,2.8135,2.8158,2.8151,2.8173,2.8173,2.8164,2.8236,2.8247,2.8294,2.8207,2.8418,2.8424,2.843,2.8495,2.8508,2.8519,0,0,0,0,0,2.8016,2.809,2.8074,2.8086,2.8147,2.8202,2.8209,2.8197,2.8162,2.8196,2.82,2.8173,2.8282,2.8243,2.8256,2.8304,2.8415,2.8422,2.843,2.849,2.8505,2.8519,0,0,0,0,0,0,2.8077,2.8092,2.8074,2.8156,2.8178,2.8193,2.8236,2.8215,2.8247,2.824,2.8223,2.8229,2.83,2.8309,2.8266,2.8392,2.8342,2.8353,2.8384,2.8399,2.8411,2.8406,2.8211,0,0,0,0,0,2.81,2.8144,2.8154,2.8225,2.8237,2.8235,2.8258,2.8247,2.8269,2.8278,2.8287,2.8309,2.8348,2.8374,2.8411,2.8496,2.8499,2.8536,2.8548,2.8558,2.8566,2.861,2.8626,2.8457,2.8457,2.8457,0,0,2.8148,2.8162,2.819,2.8238,2.8253,2.8298,2.8243,2.8293,2.8325,2.8285,2.835,2.8357,2.838,2.8457,2.8491,2.8467,2.8614,2.8567,2.8575,2.8578,2.8619,2.8635,2.8649,2.8462,2.8462,2.8461,0,0,2.8258,2.8274,2.8333,2.835,2.8374,2.8372,2.8386,2.8404,2.8407,2.8472,2.8442,2.848,2.8548,2.8565,2.8583,2.8698,2.8673,2.8711,2.8774,2.8816,2.883,2.8841,2.888,2.8895,2.8719,2.872,2.872,0,2.8315,2.8381,2.8367,2.8418,2.8439,2.8405,2.8465,2.8482,2.8517,2.8532,2.8504,2.8587,2.8601,2.868,2.8708,2.8724,2.8738,2.8708,2.8829,2.8841,2.8851,2.8888,2.8903,2.8724,2.8723,2.8723,2.8723,0,2.8448,2.8494,2.854,2.8574,2.86,2.8656,2.8649,2.8678,2.8664,2.8664,2.8729,2.8744,2.8782,2.88,2.8788,2.8877,2.8861,2.8832,2.8781,2.8872,2.8906,2.892,2.873,2.8728,2.8727,2.8726,0,0,2.8598,2.8623,2.8639,2.8653,2.8677,2.8712,2.8766,2.8803,2.8826,2.8851,2.8895,2.8953,2.8925,2.8945,2.8934,2.8972,2.9059,2.8937,2.8937,2.8958,2.9156,2.9177,2.9194,2.9043,2.9046,2.9048,2.9154,0,2.8707,2.8799,2.8787,2.8876,2.8917,2.8885,2.8931,2.895,2.8952,2.8987,2.8988,2.9029,2.899,2.9002,2.9038,2.9041,2.9099,2.9033,2.9082,2.9084,2.9076,2.9212,2.9235,2.9334,2.9167,2.917,2.9171,0,2.8846,2.8875,2.8968,2.8983,2.9,2.9042,2.9073,2.9108,2.9128,2.9127,2.9149,2.9131,2.9183,2.9132,2.9203,2.9159,2.9178,2.9182,2.9186,2.9189,2.9132,2.9217,2.9366,2.938,2.9193,2.9191,2.919,0,2.8943,2.9006,2.9069,2.9082,2.9102,2.9132,2.9142,2.9159,2.9182,2.921,2.9223,2.9258,2.9276,2.9302,2.9293,2.9257,2.9365,2.9314,2.9364,2.9364,2.9387,2.9385,2.9539,2.9402,2.9402,2.9402,2.9401,0,2.9065,2.9122,2.9112,2.9151,2.9214,2.92,2.9262,2.9267,2.9283,2.9321,2.9296,2.9332,2.9318,2.9354,2.9347,2.9406,2.9415,2.9414,2.9411,2.9415,2.9415,2.9426,2.9419,2.9406,2.9405,2.9404,2.9403,0,2.9184,2.918,2.9246,2.9259,2.9264,2.9309,2.932,2.9356,2.9355,2.9404,2.9415,2.9414,2.9454,2.9447,2.9492,2.9487,2.956,2.955,2.9553,2.955,2.9599,2.9594,2.9764,2.9785,2.9637,2.9638,2.9639,0,2.9261,2.9304,2.9322,2.9346,2.9357,2.9396,2.9418,2.9406,2.943,2.9456,2.9488,2.9526,2.9555,2.962,2.9623,2.9657,2.9646,2.9703,2.9651,2.9653,2.9644,2.9641,2.9644,2.9713,2.9715,2.9716,2.9717,0,2.9398,2.9393,2.9427,2.9459,2.9486,2.9511,2.9534,2.9555,2.9544,2.9572,2.9613,2.9636,2.968,2.9718,2.9749,2.9758,2.9735,2.9734,2.9747,2.9751,2.975,2.9749,2.9579,2.973,2.9728,2.9727,2.9727,2.9726,2.9497,2.9533,2.955,2.9588,2.9603,2.9624,2.9658,2.9661,2.9695,2.973,2.9721,2.9766,2.9784,2.9823,2.9836,2.9871,2.9849,2.9869,2.9873,2.9878,2.9882,2.9746,2.9876,2.9876,2.9876,2.9875,2.9875,0,2.963,2.964,2.9674,2.9706,2.9735,2.9712,2.9735,2.9761,2.9801,2.982,2.9849,2.9894,2.993,2.9935,2.9969,2.9995,2.9986,3.0004,3.0001,3.0004,2.9901,2.9885,3.0011,3.0011,3.0011,3.0011,3.0011,3.0011,2.9703,2.9762,2.9759,2.9825,2.9834,2.9878,2.9893,2.9912,2.9927,2.9979,3.0008,3.0011,3.0024,3.0058,3.0089,3.009,3.0102,3.0125,3.0121,3.0025,3.0011,2.9998,2.9983,3.0128,3.0128,3.0221,3.0222,3.0223]}]]